TimeEST,TemperatureF,Dew PointF,Humidity,Sea Level PressureIn,VisibilityMPH,Wind Direction,Wind SpeedMPH,Gust SpeedMPH,PrecipitationIn,Events,Conditions,WindDirDegrees,DateUTC
12:15 AM,36.9,35.8,96,30.08,4.0,SSW,6.9,-,N/A,,Overcast,210,2012-12-03 05:15:00
12:35 AM,36.7,35.6,96,30.07,3.0,Calm,Calm,-,N/A,,Scattered Clouds,0,2012-12-03 05:35:00
12:54 AM,34.7,33.6,96,30.08,2.5,Calm,Calm,-,N/A,,Mostly Cloudy,0,2012-12-03 05:54:00
1:15 AM,36.3,35.4,97,30.08,3.0,Calm,Calm,-,N/A,,Overcast,0,2012-12-03 06:15:00
1:35 AM,35.8,34.9,97,30.07,2.5,Calm,Calm,-,N/A,,Mostly Cloudy,0,2012-12-03 06:35:00
1:54 AM,33.6,32.7,96,30.07,3.0,Calm,Calm,-,N/A,,Scattered Clouds,0,2012-12-03 06:54:00
2:15 AM,32.4,32.0,99,30.08,3.0,Calm,Calm,-,N/A,,Clear,0,2012-12-03 07:15:00
2:35 AM,32.5,32.0,98,30.08,2.5,Calm,Calm,-,N/A,,Clear,0,2012-12-03 07:35:00
2:54 AM,32.0,31.6,99,30.07,1.0,Calm,Calm,-,N/A,,Overcast,0,2012-12-03 07:54:00
3:15 AM,32.2,31.8,99,30.08,0.5,Calm,Calm,-,N/A,Fog,Fog,0,2012-12-03 08:15:00
3:35 AM,32.2,32.0,99,30.08,0.2,Calm,Calm,-,N/A,Fog,Fog,0,2012-12-03 08:35:00
3:54 AM,32.0,31.8,99,30.09,0.5,Calm,Calm,-,N/A,Fog,Fog,0,2012-12-03 08:54:00
4:15 AM,32.0,31.5,98,30.07,0.2,Calm,Calm,-,N/A,Fog,Fog,0,2012-12-03 09:15:00
4:35 AM,31.8,31.3,98,30.06,0.2,Calm,Calm,-,N/A,Fog,Fog,0,2012-12-03 09:35:00
4:54 AM,32.0,31.6,99,30.06,0.2,Calm,Calm,-,N/A,Fog,Fog,0,2012-12-03 09:54:00
5:15 AM,32.9,32.2,97,30.06,1.8,Calm,Calm,-,N/A,,Overcast,0,2012-12-03 10:15:00
5:35 AM,33.8,33.3,98,30.06,3.0,Calm,Calm,-,N/A,,Overcast,0,2012-12-03 10:35:00
5:54 AM,34.7,34.2,98,30.06,3.0,Calm,Calm,-,N/A,,Overcast,0,2012-12-03 10:54:00
6:15 AM,36.5,35.8,97,30.06,3.0,Calm,Calm,-,N/A,,Overcast,0,2012-12-03 11:15:00
6:35 AM,37.4,36.5,97,30.05,3.0,Calm,Calm,-,N/A,,Overcast,0,2012-12-03 11:35:00
6:54 AM,37.0,36.5,98,30.04,3.0,SSW,4.6,-,N/A,,Overcast,200,2012-12-03 11:54:00
7:15 AM,37.8,37.2,98,30.04,3.0,Calm,Calm,-,N/A,,Overcast,0,2012-12-03 12:15:00
7:34 AM,38.5,37.8,97,30.04,2.5,Calm,Calm,-,N/A,,Overcast,0,2012-12-03 12:34:00
7:54 AM,39.7,39.0,97,30.04,2.5,Calm,Calm,-,N/A,,Overcast,0,2012-12-03 12:54:00
8:15 AM,41.0,40.1,97,30.03,1.5,Calm,Calm,-,N/A,,Overcast,0,2012-12-03 13:15:00
8:34 AM,41.0,40.1,97,30.02,1.2,Calm,Calm,-,N/A,,Overcast,0,2012-12-03 13:34:00
8:54 AM,41.2,40.3,97,30.03,0.5,SW,3.5,-,N/A,Fog,Fog,220,2012-12-03 13:54:00
9:15 AM,42.3,41.4,97,30.03,0.2,Calm,Calm,-,N/A,Fog,Fog,0,2012-12-03 14:15:00
9:34 AM,42.8,41.9,97,30.02,0.2,Calm,Calm,-,N/A,Fog,Fog,0,2012-12-03 14:34:00
9:54 AM,47.3,46.0,95,30.01,0.2,SSE,8.1,-,N/A,Fog,Fog,160,2012-12-03 14:54:00
10:15 AM,48.2,46.9,95,30.01,0.2,SSE,6.9,-,N/A,Fog,Fog,150,2012-12-03 15:15:00
10:34 AM,48.6,47.5,96,30.00,0.2,SSE,4.6,-,N/A,Fog,Fog,160,2012-12-03 15:34:00
10:55 AM,49.1,48.2,97,29.99,0.5,SSE,5.8,-,N/A,Fog,Fog,160,2012-12-03 15:55:00
11:15 AM,50.0,49.1,97,29.98,0.8,SSE,4.6,-,N/A,,Overcast,150,2012-12-03 16:15:00
11:34 AM,50.9,49.8,96,29.96,1.0,SSE,4.6,-,N/A,,Overcast,160,2012-12-03 16:34:00
11:55 AM,51.8,50.7,96,29.96,1.8,SSE,8.1,-,N/A,,Overcast,160,2012-12-03 16:55:00
12:14 PM,52.7,51.4,95,29.94,2.0,SSE,8.1,-,N/A,,Overcast,160,2012-12-03 17:14:00
12:34 PM,52.9,51.8,96,29.92,2.0,SSE,5.8,-,N/A,,Overcast,160,2012-12-03 17:34:00
12:55 PM,53.6,52.5,96,29.91,2.5,SSE,10.4,-,N/A,,Overcast,160,2012-12-03 17:55:00
1:14 PM,54.1,52.7,95,29.90,2.0,South,9.2,-,N/A,,Overcast,170,2012-12-03 18:14:00
1:35 PM,54.5,53.1,95,29.90,2.0,SSE,9.2,17.3,N/A,,Overcast,160,2012-12-03 18:35:00
1:55 PM,55.0,53.6,95,29.89,1.2,SSE,8.1,-,N/A,,Overcast,160,2012-12-03 18:55:00
2:14 PM,55.4,54.0,95,29.88,1.0,SSE,9.2,16.1,N/A,,Overcast,160,2012-12-03 19:14:00
2:35 PM,55.4,54.1,96,29.87,1.0,South,9.2,-,N/A,,Overcast,170,2012-12-03 19:35:00
2:54 PM,55.9,54.7,96,29.86,1.0,South,11.5,-,N/A,,Overcast,170,2012-12-03 19:54:00
3:15 PM,56.3,55.0,96,29.86,1.0,South,11.5,-,N/A,,Overcast,170,2012-12-03 20:15:00
3:35 PM,56.7,55.4,96,29.84,0.8,South,13.8,17.3,N/A,,Overcast,170,2012-12-03 20:35:00
3:54 PM,57.2,55.8,95,29.83,1.0,South,12.7,20.7,N/A,,Overcast,170,2012-12-03 20:54:00
4:15 PM,57.4,56.3,96,29.83,1.0,South,12.7,-,N/A,,Overcast,170,2012-12-03 21:15:00
4:34 PM,57.9,56.7,96,29.83,1.2,South,13.8,21.9,N/A,,Overcast,180,2012-12-03 21:34:00
4:55 PM,58.3,57.2,96,29.83,1.5,South,12.7,20.7,N/A,,Overcast,190,2012-12-03 21:55:00
5:15 PM,58.8,57.4,95,29.82,1.8,South,13.8,21.9,N/A,,Overcast,190,2012-12-03 22:15:00
5:34 PM,59.0,57.7,96,29.81,2.5,South,13.8,19.6,N/A,,Overcast,190,2012-12-03 22:34:00
5:55 PM,59.4,58.1,96,29.81,4.0,South,16.1,21.9,N/A,,Overcast,180,2012-12-03 22:55:00
6:15 PM,59.9,58.3,94,29.82,5.0,South,9.2,23.0,N/A,,Overcast,180,2012-12-03 23:15:00
6:34 PM,60.4,58.3,93,29.82,5.0,South,9.2,16.1,N/A,,Overcast,190,2012-12-03 23:34:00
6:55 PM,60.8,58.5,92,29.81,7.0,South,12.7,17.3,N/A,,Overcast,190,2012-12-03 23:55:00
7:15 PM,61.9,58.6,89,29.80,7.0,South,15.0,18.4,N/A,,Overcast,180,2012-12-04 00:15:00
7:34 PM,62.4,58.5,87,29.80,7.0,South,15.0,24.2,N/A,,Overcast,190,2012-12-04 00:34:00
7:55 PM,62.2,58.5,87,29.79,7.0,South,11.5,23.0,N/A,,Overcast,190,2012-12-04 00:55:00
8:15 PM,62.4,58.3,86,29.79,7.0,SSW,13.8,25.3,N/A,,Overcast,200,2012-12-04 01:15:00
8:34 PM,62.4,58.1,86,29.78,10.0,South,13.8,23.0,N/A,,Overcast,190,2012-12-04 01:34:00
8:55 PM,62.2,58.1,86,29.76,10.0,South,11.5,26.5,N/A,,Overcast,190,2012-12-04 01:55:00
9:14 PM,62.8,58.1,85,29.76,10.0,South,16.1,26.5,N/A,,Overcast,190,2012-12-04 02:14:00
9:34 PM,63.3,57.7,82,29.75,10.0,SSW,16.1,21.9,N/A,,Overcast,200,2012-12-04 02:34:00
9:55 PM,63.7,57.6,80,29.74,10.0,SSW,18.4,31.1,N/A,,Overcast,200,2012-12-04 02:55:00
10:14 PM,63.3,57.6,81,29.75,10.0,SSW,13.8,26.5,N/A,Rain,Light Rain,210,2012-12-04 03:14:00
10:34 PM,61.7,58.5,89,29.76,4.0,SW,16.1,20.7,N/A,Rain,Heavy Rain,220,2012-12-04 03:34:00
10:55 PM,61.2,58.3,90,29.76,5.0,SW,10.4,19.6,N/A,Rain,Rain,230,2012-12-04 03:55:00
11:14 PM,61.0,57.9,90,29.76,7.0,SW,11.5,19.6,N/A,Rain,Light Rain,230,2012-12-04 04:14:00
11:34 PM,61.3,57.2,86,29.76,10.0,SW,9.2,18.4,N/A,Rain,Light Rain,220,2012-12-04 04:34:00
11:55 PM,61.9,56.7,83,29.76,10.0,SW,12.7,25.3,N/A,,Overcast,230,2012-12-04 04:55:00